Regional Weather Roundup
Issued by NWS Goodland, KS

Home | Current Version | Previous Version | Text Only | Print | Product List | Glossary On
Versions: 1 2 3 4 5 6 7 8 9 10 11 12 13 14 15 16 17 18 19 20 21 22 23 24 25 26 27 28 29 30 31 32 33 34 35 36 37 38 39 40 41 42 43 44 45 46 47 48 49 50
000
ASUS43 KGLD 171959
RWRGLD

GOODLAND FORECAST AREA HOURLY WEATHER ROUNDUP
NATIONAL WEATHER SERVICE GOODLAND KS
200 PM MDT WED SEP 17 2014

...OFFICIAL OBSERVATIONS...

CITY           SKY/WX    TMP DP  RH WIND       PRES   REMARKS
GOODLAND KS    SUNNY     89  53  29 S9G18     29.94F
HILL CITY KS   SUNNY     84  63  49 E8        29.89F
IMPERIAL NEB   SUNNY     88  50  27 S9        29.92F
MCCOOK NEB     SUNNY     84  61  45 E7        29.91F
AKRON CO       SUNNY     88  44  21 NW17      30.00F
BURLINGTON CO  PTSUNNY   84  44  24 N16G24    29.97F
LIMON CO       PTSUNNY   86  39  19 S16G24    30.05F
$$

...UNOFFICIAL OBSERVATIONS...

CITY           SKY/WX    TMP DP  RH WIND       PRES   REMARKS
COLBY KS       SUNNY     90  63  40 SE10      29.93F
GOVE KS          N/A     88  32  13 MISG        N/A
NORTON KS      SUNNY     82  55  39 E9        29.90F
SHARON SPRINGS   N/A     93  53  25 S7G15       N/A
WAKEENEY KS      N/A     87  57  35 MISG        N/A
TRENTON NEB      N/A     85  32  15 S12         N/A
YUMA CO          N/A     88  42  19 CALM        N/A
$$


USA.gov is the U.S. government's official web portal to all federal, state and local government web resources and services.